www.pogodaiklimat.ru

Погода и климат >> Архив погоды >> Мексика >> Hermosillo la Magna


ПОГОДА в Hermosillo la Magna

  • Прогноз погоды в Hermosillo la Magna
  • Монитор погоды в Hermosillo la Magna
  • Климат города

АРХИВ ПОГОДЫ в Hermosillo la Magna

Время (UTC), дата Ветер
(напр.,м/с)
 
Видим.   Явления Облачность Т
(С)
Тd
(С)
f
(%)
Тe
(С)
Тes
(С)
Комфортность P
(гПа)
Po
(гПа)
Тmin
(С)
Tmax
(С)
R
(мм)
R24
(мм)
S
(см)
18 9.08 ЮВ 1 н/о н/о +37.5 +24.4 47 +49 +49 опасность
перегрева
1010.1 986.8 +28.6 +37.7
21 9.08 ЮВ 2 н/о н/о +40.5 +22.0 35 +48 +48 опасность
перегрева
1008.3 985.5
00 10.08 ЮЗ 4 н/о н/о +41.0 +19.6 29 +46 +46 опасность
перегрева
1005.7 982.7 +28.6 +43.0
03 10.08 З 3 н/о н/о +34.2 +23.8 55 +46 +46 опасность
перегрева
1007.7 984.2
06 10.08 В 3 н/о н/о +24.0 +22.8 93 +32 +32 очень
душно
1012.7 988.5 +21.7 +43.0 26
12 10.08 СВ 3 н/о н/о +24.3 -5 -5 1010.7 986.6 +21.7 +43.0 0.4
15 10.08 СВ 3 н/о н/о +27.3 +23.4 79 +37 +37 очень
душно
1012.2 988.1
18 10.08 В 1 н/о н/о +34.1 +22.8 52 +44 +44 опасность
перегрева
1012.0 988.3 +21.7 +34.1
21 10.08 З 1 н/о н/о +36.3 +21.8 43 +44 +44 опасность
перегрева
1009.9 986.5
00 11.08 Ю 1 н/о н/о +37.7 +21.9 40 +46 +46 опасность
перегрева
1007.6 984.3 +23.8 +37.9
03 11.08 ЮЗ 1 н/о н/о +33.0 +22.6 54 +42 +42 опасность
перегрева
1008.5 984.8
06 11.08 З 1 н/о н/о +30.0 +23.8 69 +41 +41 опасность
перегрева
1009.3 985.4 +23.8 +38.0
09 11.08 СВ 1 н/о н/о +28.0 +25.7 87 +41 +41 опасность
перегрева
1008.5 984.5
12 11.08 З 1 н/о н/о +26.6 +26.0 97 +40 +40 очень
душно
1008.8 984.6 +26.5 +38.0
15 11.08 В 2 н/о н/о +31.0 +23.1 63 +41 +41 опасность
перегрева
1009.0 985.2
21 11.08 В 2 н/о н/о +39.6 +22.2 37 +48 +48 опасность
перегрева
1006.4 983.3
00 12.08 ЮЗ 2 н/о н/о +40.1 +20.1 32 +46 +46 опасность
перегрева
1004.8 981.7 +26.3 +41.7
03 12.08 З 4 н/о н/о +34.7 +20.6 44 +41 +41 опасность
перегрева
1006.8 983.3
06 12.08 Ю 2 н/о н/о +31.8 +22.6 58 +41 +41 опасность
перегрева
1009.7 986.0 +26.3 +41.7
09 12.08 ЮВ 1 н/о н/о +28.0 +20.5 64 +35 +35 очень
душно
1010.9 986.8
12 12.08 СВ 3 н/о н/о +26.5 +21.3 73 +34 +34 очень
душно
1011.3 987.0 +26.5 +41.7
15 12.08 СВ 3 н/о н/о +29.7 +21.1 60 +37 +37 очень
душно
1012.7 988.6
18 12.08 ЮВ 3 н/о н/о +36.0 +23.3 48 +46 +46 опасность
перегрева
1012.3 988.8 +26.5 +36.0
21 12.08 Ю 2 н/о н/о +36.7 +22.2 43 +45 +45 опасность
перегрева
1010.5 987.1
00 13.08 ЮВ 3 н/о н/о +35.3 +22.3 47 +44 +44 опасность
перегрева
1009.0 985.5 +26.5 +38.3
03 13.08 Ю 3 н/о н/о +32.5 +23.5 59 +43 +43 опасность
перегрева
1010.5 986.7
06 13.08 В 1 н/о н/о +29.3 +23.0 69 +39 +39 очень
душно
1011.6 987.6 +26.5 +38.3
09 13.08 СВ 2 н/о н/о +28.0 +22.5 72 +37 +37 очень
душно
1012.2 988.1
12 13.08 СВ 2 н/о н/о +27.4 +22.4 74 +36 +36 очень
душно
1011.8 987.7 +27.4 +38.3
15 13.08 В 2 н/о н/о +30.4 +23.8 68 +42 +42 опасность
перегрева
1013.1 989.4
18 13.08 ЮВ 2 н/о н/о +35.1 +24.1 53 +47 +47 опасность
перегрева
1012.4 988.8 +26.7 +36.0
21 13.08 Ю 2 н/о н/о +37.5 +21.7 40 +45 +45 опасность
перегрева
1009.9 986.5
03 14.08 В 2 н/о н/о +30.3 +22.4 63 +40 +40 очень
душно
1010.2 986.3
06 14.08 В 2 н/о н/о +28.9 +24.2 76 +40 +40 очень
душно
1011.6 987.5 +26.7 +38.5
09 14.08 В 1 н/о н/о +27.7 +23.8 79 +38 +38 очень
душно
1011.0 986.9
12 14.08 В 2 н/о н/о +26.4 +22.0 77 +34 +34 очень
душно
1011.0 986.7 +26.4 +38.5
15 14.08 СВ 3 н/о н/о +28.9 +21.4 64 +37 +37 очень
душно
1011.6 987.6
18 14.08 В 2 н/о н/о +35.0 +22.8 49 +45 +45 опасность
перегрева
1010.7 987.2 +25.9 +35.6
21 14.08 ЮЗ 2 н/о н/о +38.3 +21.0 37 +45 +45 опасность
перегрева
1007.8 984.8
00 15.08 З 3 н/о н/о +38.4 +19.7 34 1005.8 983.5 +25.9 +39.9
03 15.08 ЮЗ 2 н/о н/о +34.3 +18.7 40 +39 +39 очень
душно
1007.2 983.6
06 15.08 З 1 н/о н/о +30.3 +19.9 54 +37 +37 очень
душно
1009.0 985.2 +25.9 +39.9
09 15.08 СВ 1 н/о н/о +27.7 +22.5 73 +36 +36 очень
душно
1008.9 984.9
12 15.08 СВ 2 н/о н/о +26.2 +22.7 81 +35 +35 очень
душно
1009.5 985.3 +26.2 +39.9
15 15.08 В 2 н/о н/о +30.2 +24.6 72 +43 +43 опасность
перегрева
1010.8 986.9
18 15.08 ЮВ 2 н/о н/о +37.2 +21.0 39 +44 +44 опасность
перегрева
1010.3 986.9 +26.0 +37.5
21 15.08 Ю 3 н/о н/о +38.3 +20.1 35 +44 +44 опасность
перегрева
1008.2 984.9
00 16.08 ЮЗ 4 н/о н/о +38.3 +20.7 36 +44 +44 опасность
перегрева
1006.8 983.6 +26.0 +40.1
03 16.08 ЮЗ 4 н/о н/о +33.7 +19.4 43 +39 +39 очень
душно
1007.8 984.2
06 16.08 З 2 н/о н/о +30.6 +21.3 58 +39 +39 очень
душно
1009.8 985.9 +26.0 +40.1
09 16.08 З 1 н/о н/о +27.4 +23.6 80 +37 +37 очень
душно
1010.6 986.4
12 16.08 В 2 н/о н/о +25.8 +22.6 83 +34 +34 очень
душно
1011.4 987.1 +25.8 +40.1
15 16.08 СВ 3 н/о н/о +29.4 +22.4 66 +38 +38 очень
душно
1012.3 988.3

 

Местоположение метеостанции Hermosillo la Magna (Мексика): широта 29.08 долгота -110.95 высота над уровнем моря 210 м.

В архиве по умолчанию представлена погода в Hermosillo la Magna за последнюю неделю. Архивные данные за месяц целиком и за предыдущие месяцы, начиная с января 2011 года, Вы можете получить, выбрав интересующий диапазон дат из раскрывающегося списка и нажав кнопку "Ввод!".

Внимание! Время в таблицах - всемирное. Для получения местного времени необходимо прибавить поправку, которая в Hermosillo la Magna равна -7 ч.

Смотрите также архив погоды в соседних городах и на ближайших метеорологических станциях:

Погода в Hermosillo (Мексика) (10 км)
Погода в Empalme (Мексика) (128 км)
Погода в Guaymas Upper Air Site (Мексика) (129 км)
Погода в Pilares de Nacoz (Мексика) (189 км)
Погода в Altar Son (Мексика) (201 км)
Погода в Ciudad Obregon (Мексика) (218 км)
Погода в Santa Rosalia (Мексика) (237 км)
Погода в Temosachic (Мексика) (307 км)
Погода в Nueva Casas Grandes (Мексика) (328 км)
Погода в Loreto (Мексика) (342 км)

Пояснения к столбцам:

Ветер - указаны скорость ветра в м/с - средняя за 10 мин, порывы в срок и между сроками (в фигурных скобках) и направление, откуда дует ветер: С - северный, СВ - северо-восточный, В - восточный, ЮВ - юго-восточный, Ю - южный, ЮЗ - юго-западный, З - западный, СЗ - северо-западный.
Видимость - горизонтальная дальность видимости в метрах или километрах. При видимости от 1 до 10 км при отсутствии осадков обычно наблюдается дымка, при ухудшении видимости до 1 км и менее - туман. В сухую погоду видимость может ухудшаться дымом, пылью или мглою.
Явления - указаны атмосферные явления, наблюдавшиеся в срок или в последний час перед сроком; фигурными скобками обозначены явления, наблюдавшиеся между сроками (за 1-3 часа до срока); квадратными скобками обозначены град или гололедные отложения с указанием их диаметра в мм.
Облачность - указаны через наклонную черту общая и нижняя облачность в баллах и высота нижней границы облаков в метрах; квадратными скобками обозначены формы облаков: Ci - перистые, Cs - перисто-слоистые, Cc - перисто-кучевые, Ac - высококучевые, As - высокослоистые, Sc - слоисто-кучевые, Ns - слоисто-дождевые, Cu - кучевые, Cb - кучево-дождевые. Подробнее классификацию облаков см. в Атласе облаков (PDF).
T - Температура воздуха - температура, измеренная на высоте 2 м над землей.
Td - Температура точки росы - температура, при понижении до которой содержащийся в воздухе водяной пар достигнет насыщения.
f - Относительная влажность воздуха - влажноcть воздуха, измеренная на высоте 2 м над землей.
Te - Эффективная температура - температура, которую ощущает одетый по сезону человек в тени. Характеристика душности погоды. При расчете учитывается влияние влажности воздуха и скорости ветра на теплоощущения человека.
Tes - Эффективная температура на солнце - температура, которую ощущает человек, с поправкой на солнечный нагрев. Характеристика знойности погоды. Зависит от высоты солнца над горизонтом, облачности и скорости ветра. Ночью, в пасмурную погоду, а также при ветре 12 м/с и более поправка равна нулю.
P - Атмосферное давление - приведенное к уровню моря атмосферное давление.
Po - Атмосферное давление - измеренное на уровне метеостанции атмосферное давление.
Tmin - Минимальная температура - минимум температуры воздуха на высоте 2 м над землей.
Tmax - Максимальная температура - максимум температуры воздуха на высоте 2 м над землей.
R - Количество осадков - Количество выпавших осадков за период времени, мм. При наведении курсора мыши на число - период времени, за который выпало указанное количество осадков.
R24 - Количество осадков - Количество выпавших осадков за 24 часа, мм.
S - Снежный покров - Высота снежного покрова, см. При наведении курсора мыши на число - состояние снежного покрова и степень покрытия местности в баллах.